"read_dt","SO2 (ppb)","flags","PMT voltage (V)","lamp voltage (V)","lamp intensity (Hz)","internal temp (C)","react chamber temp (C)","sample flow (l/min)","pres (mmHg)","SO2 bkg (ppb)","SO2 coefficient"
2016-01-01 00:00:00,1865E-3,5C000400,-0724,0832,12130,021.4,045.3,0.267,760.4,01.16,0.508
2016-01-01 00:01:00,1802E-3,5C000400,-0724,0832,12224,021.4,045.3,0.267,760.3,01.16,0.508
2016-01-01 00:02:00,1831E-3,5C000400,-0724,0833,12260,021.4,045.3,0.268,760.2,01.16,0.508
2016-01-01 00:03:00,1720E-3,5C000400,-0724,0833,12200,021.4,045.3,0.267,760.3,01.16,0.508
2016-01-01 00:04:00,1844E-3,5C000400,-0724,0833,12055,021.4,045.3,0.268,760.3,01.16,0.508
2016-01-01 00:05:00,1804E-3,5C000400,-0724,0833,12090,021.4,045.3,0.267,760.3,01.16,0.508
2016-01-01 00:06:00,1827E-3,5C000400,-0724,0833,12133,021.4,045.3,0.267,760.4,01.16,0.508
2016-01-01 00:07:00,1853E-3,5C000400,-0724,0833,12202,021.4,045.3,0.267,760.3,01.16,0.508
2016-01-01 00:08:00,1924E-3,5C000400,-0724,0833,12098,021.4,045.3,0.267,760.2,01.16,0.508
2016-01-01 00:09:00,1897E-3,5C000400,-0724,0833,12259,021.4,045.3,0.267,760.2,01.16,0.508
2016-01-01 00:10:00,1669E-3,5C000400,-0724,0832,12117,021.4,045.3,0.267,760.2,01.16,0.508
2016-01-01 00:11:00,1758E-3,5C000400,-0724,0833,12198,021.4,045.2,0.267,760.2,01.16,0.508
2016-01-01 00:12:00,1903E-3,5C000400,-0724,0833,12246,021.4,045.3,0.267,760.1,01.16,0.508
2016-01-01 00:13:00,1810E-3,5C000400,-0724,0833,12257,021.4,045.3,0.267,760.1,01.16,0.508
2016-01-01 00:14:00,1758E-3,5C000400,-0724,0832,12161,021.4,045.2,0.268,760.1,01.16,0.508
2016-01-01 00:15:00,1866E-3,5C000400,-0724,0833,12084,021.4,045.3,0.267,760.0,01.16,0.508
2016-01-01 00:16:00,1760E-3,5C000400,-0724,0833,12081,021.4,045.3,0.267,760.0,01.16,0.508
2016-01-01 00:17:00,1829E-3,5C000400,-0724,0832,12180,021.4,045.3,0.267,760.0,01.16,0.508
2016-01-01 00:18:00,1810E-3,5C000400,-0724,0832,12132,021.4,045.2,0.267,760.0,01.16,0.508
2016-01-01 00:19:00,1794E-3,5C000400,-0724,0832,12156,021.4,045.3,0.267,760.1,01.16,0.508
2016-01-01 00:20:00,1776E-3,5C000400,-0724,0832,12104,021.4,045.3,0.267,759.9,01.16,0.508
2016-01-01 00:21:00,1793E-3,5C000400,-0724,0833,12241,021.3,045.3,0.267,759.8,01.16,0.508
2016-01-01 00:22:00,1804E-3,5C000400,-0724,0833,12300,021.3,045.3,0.267,759.9,01.16,0.508
2016-01-01 00:23:00,1885E-3,5C000400,-0724,0832,12024,021.3,045.3,0.267,759.9,01.16,0.508
2016-01-01 00:24:00,1730E-3,5C000400,-0724,0833,12182,021.3,045.3,0.267,759.9,01.16,0.508
2016-01-01 00:25:00,1717E-3,5C000400,-0724,0833,12201,021.3,045.3,0.267,759.8,01.16,0.508
2016-01-01 00:26:00,1830E-3,5C000400,-0724,0833,12225,021.3,045.3,0.267,759.9,01.16,0.508
2016-01-01 00:27:00,1799E-3,5C000400,-0724,0833,12216,021.3,045.3,0.267,759.9,01.16,0.508
2016-01-01 00:28:00,1603E-3,5C000400,-0724,0833,12166,021.3,045.3,0.267,760.0,01.16,0.508
2016-01-01 00:29:00,1822E-3,5C000400,-0724,0833,12291,021.3,045.3,0.267,759.9,01.16,0.508
2016-01-01 00:30:00,1868E-3,5C000400,-0724,0833,12185,021.3,045.3,0.268,760.1,01.16,0.508
2016-01-01 00:31:00,2003E-3,5C000400,-0724,0833,12244,021.3,045.3,0.268,760.1,01.16,0.508
2016-01-01 00:32:00,1687E-3,5C000400,-0724,0833,12220,021.3,045.3,0.268,760.0,01.16,0.508
2016-01-01 00:33:00,1919E-3,5C000400,-0724,0832,12047,021.3,045.3,0.268,760.1,01.16,0.508
2016-01-01 00:34:00,1900E-3,5C000400,-0724,0834,12135,021.3,045.3,0.268,760.0,01.16,0.508
2016-01-01 00:35:00,1819E-3,5C000400,-0724,0833,12272,021.3,045.3,0.268,760.2,01.16,0.508
2016-01-01 00:36:00,1863E-3,5C000400,-0724,0832,11981,021.3,045.3,0.268,760.1,01.16,0.508
2016-01-01 00:37:00,1731E-3,5C000400,-0724,0832,12204,021.3,045.3,0.268,760.2,01.16,0.508
2016-01-01 00:38:00,1774E-3,5C000400,-0724,0833,12173,021.3,045.3,0.268,760.2,01.16,0.508
2016-01-01 00:39:00,1775E-3,5C000400,-0724,0833,12079,021.3,045.3,0.268,760.2,01.16,0.508
2016-01-01 00:40:00,1892E-3,5C000400,-0724,0833,12190,021.2,045.3,0.268,760.3,01.16,0.508
2016-01-01 00:41:00,1824E-3,5C000400,-0724,0833,12129,021.2,045.3,0.267,760.3,01.16,0.508
2016-01-01 00:42:00,1897E-3,5C000400,-0724,0833,12144,021.2,045.3,0.267,760.3,01.16,0.508
2016-01-01 00:43:00,1868E-3,5C000400,-0724,0833,12044,021.3,045.3,0.267,760.3,01.16,0.508
2016-01-01 00:44:00,1851E-3,5C000400,-0724,0832,12166,021.2,045.3,0.268,760.4,01.16,0.508
2016-01-01 00:45:00,1851E-3,5C000400,-0724,0833,12145,021.3,045.3,0.268,760.4,01.16,0.508
2016-01-01 00:46:00,1729E-3,5C000400,-0724,0833,12186,021.2,045.3,0.268,760.4,01.16,0.508
2016-01-01 00:47:00,1653E-3,5C000400,-0724,0832,12121,021.2,045.3,0.267,760.5,01.16,0.508
2016-01-01 00:48:00,1846E-3,5C000400,-0724,0833,12142,021.2,045.3,0.268,760.5,01.16,0.508
2016-01-01 00:49:00,1821E-3,5C000400,-0724,0832,12300,021.2,045.3,0.268,760.5,01.16,0.508
2016-01-01 00:50:00,1821E-3,5C000400,-0724,0833,12111,021.2,045.3,0.268,760.6,01.16,0.508
2016-01-01 00:51:00,1740E-3,5C000400,-0724,0833,12210,021.2,045.3,0.267,760.6,01.16,0.508
2016-01-01 00:52:00,1860E-3,5C000400,-0724,0833,12254,021.2,045.3,0.267,760.6,01.16,0.508
2016-01-01 00:53:00,1812E-3,5C000400,-0724,0832,12174,021.2,045.3,0.268,760.6,01.16,0.508
2016-01-01 00:54:00,1802E-3,5C000400,-0724,0833,12143,021.2,045.3,0.268,760.6,01.16,0.508
2016-01-01 00:55:00,1778E-3,5C000400,-0724,0832,12247,021.1,045.3,0.268,760.5,01.16,0.508
2016-01-01 00:56:00,1809E-3,5C000400,-0724,0832,12156,021.1,045.3,0.268,760.6,01.16,0.508
2016-01-01 00:57:00,1891E-3,5C000400,-0724,0832,12178,021.1,045.3,0.267,760.6,01.16,0.508
2016-01-01 00:58:00,1745E-3,5C000400,-0724,0832,12211,021.1,045.2,0.268,760.6,01.16,0.508
2016-01-01 00:59:00,1764E-3,5C000400,-0724,0832,12136,021.1,045.3,0.268,760.6,01.16,0.508
2016-01-01 01:00:00,1774E-3,5C000400,-0724,0832,12247,021.1,045.3,0.268,760.5,01.16,0.508
2016-01-01 01:01:00,1807E-3,5C000400,-0724,0833,12235,021.1,045.3,0.268,760.5,01.16,0.508
2016-01-01 01:02:00,1722E-3,5C000400,-0724,0831,12177,021.1,045.3,0.268,760.4,01.16,0.508
2016-01-01 01:03:00,1872E-3,5C000400,-0724,0833,12257,021.1,045.3,0.268,760.4,01.16,0.508
2016-01-01 01:04:00,1931E-3,5C000400,-0724,0833,12350,021.1,045.3,0.268,760.3,01.16,0.508
2016-01-01 01:05:00,1847E-3,5C000400,-0724,0833,12223,021.1,045.3,0.267,760.4,01.16,0.508
2016-01-01 01:06:00,1785E-3,5C000400,-0724,0833,12146,021.1,045.3,0.268,760.3,01.16,0.508
2016-01-01 01:07:00,1955E-3,5C000400,-0724,0832,12180,021.1,045.3,0.268,760.4,01.16,0.508
2016-01-01 01:08:00,1728E-3,5C000400,-0724,0832,12225,021.1,045.3,0.267,760.4,01.16,0.508
2016-01-01 01:09:00,1816E-3,5C000400,-0724,0832,12224,021.1,045.3,0.268,760.3,01.16,0.508
2016-01-01 01:10:00,1817E-3,5C000400,-0724,0833,12172,021.1,045.3,0.268,760.3,01.16,0.508
2016-01-01 01:11:00,1845E-3,5C000400,-0724,0832,12231,021.1,045.3,0.267,760.3,01.16,0.508
2016-01-01 01:12:00,1767E-3,5C000400,-0724,0832,12216,021.1,045.2,0.268,760.3,01.16,0.508
2016-01-01 01:13:00,1824E-3,5C000400,-0724,0833,12141,021.1,045.3,0.268,760.3,01.16,0.508
2016-01-01 01:14:00,1792E-3,5C000400,-0724,0833,12118,021.1,045.3,0.268,760.3,01.16,0.508
2016-01-01 01:15:00,1828E-3,5C000400,-0724,0833,12226,021.1,045.3,0.268,760.3,01.16,0.508
2016-01-01 01:16:00,1889E-3,5C000400,-0724,0833,12239,021.1,045.3,0.268,760.5,01.16,0.508
2016-01-01 01:17:00,1694E-3,5C000400,-0724,0833,12070,021.1,045.3,0.268,760.5,01.16,0.508
2016-01-01 01:18:00,1845E-3,5C000400,-0724,0832,12176,021.1,045.3,0.268,760.5,01.16,0.508
2016-01-01 01:19:00,1728E-3,5C000400,-0724,0832,12168,021.1,045.3,0.268,760.6,01.16,0.508
2016-01-01 01:20:00,1761E-3,5C000400,-0724,0833,12121,021.1,045.2,0.268,760.5,01.16,0.508
2016-01-01 01:21:00,1786E-3,5C000400,-0724,0833,12172,021.1,045.2,0.267,760.5,01.16,0.508
2016-01-01 01:22:00,1800E-3,5C000400,-0724,0832,12225,021.1,045.2,0.268,760.4,01.16,0.508
2016-01-01 01:23:00,1763E-3,5C000400,-0724,0833,12252,021.1,045.3,0.268,760.4,01.16,0.508
2016-01-01 01:24:00,1828E-3,5C000400,-0724,0832,12210,021.1,045.3,0.268,760.4,01.16,0.508
2016-01-01 01:25:00,1774E-3,5C000400,-0724,0832,12368,021.0,045.3,0.268,760.4,01.16,0.508
2016-01-01 01:26:00,1922E-3,5C000400,-0724,0833,12184,021.1,045.3,0.268,760.4,01.16,0.508
2016-01-01 01:27:00,1826E-3,5C000400,-0724,0833,12284,021.1,045.3,0.268,760.4,01.16,0.508
2016-01-01 01:28:00,1790E-3,5C000400,-0724,0833,12344,021.1,045.3,0.268,760.4,01.16,0.508
2016-01-01 01:29:00,1690E-3,5C000400,-0724,0833,11996,021.1,045.3,0.268,760.4,01.16,0.508
2016-01-01 01:30:00,1807E-3,5C000400,-0724,0832,12008,021.1,045.3,0.268,760.3,01.16,0.508
2016-01-01 01:31:00,1795E-3,5C000400,-0724,0833,12052,021.1,045.3,0.268,760.3,01.16,0.508
2016-01-01 01:32:00,1833E-3,5C000400,-0724,0832,12178,021.1,045.3,0.268,760.3,01.16,0.508
2016-01-01 01:33:00,1820E-3,5C000400,-0724,0833,12111,021.1,045.3,0.268,760.3,01.16,0.508
2016-01-01 01:34:00,1898E-3,5C000400,-0724,0833,12128,021.1,045.2,0.268,760.2,01.16,0.508
2016-01-01 01:35:00,1637E-3,5C000400,-0724,0833,12234,021.1,045.3,0.268,760.2,01.16,0.508
2016-01-01 01:36:00,1882E-3,5C000400,-0724,0832,12257,021.1,045.3,0.268,760.2,01.16,0.508
2016-01-01 01:37:00,1777E-3,5C000400,-0724,0833,12211,021.1,045.3,0.268,760.2,01.16,0.508
2016-01-01 01:38:00,1839E-3,5C000400,-0724,0832,12305,021.1,045.3,0.268,760.2,01.16,0.508
2016-01-01 01:39:00,1721E-3,5C000400,-0724,0832,12247,021.1,045.3,0.268,760.2,01.16,0.508
2016-01-01 01:40:00,1841E-3,5C000400,-0724,0833,12202,021.1,045.3,0.268,760.3,01.16,0.508
2016-01-01 01:41:00,1830E-3,5C000400,-0724,0833,12111,021.1,045.3,0.267,760.2,01.16,0.508
2016-01-01 01:42:00,1962E-3,5C000400,-0724,0833,12290,021.1,045.3,0.267,760.3,01.16,0.508
2016-01-01 01:43:00,1823E-3,5C000400,-0724,0833,12074,021.1,045.3,0.267,760.1,01.16,0.508
2016-01-01 01:44:00,1825E-3,5C000400,-0724,0832,12180,021.1,045.3,0.267,760.1,01.16,0.508
2016-01-01 01:45:00,1809E-3,5C000400,-0724,0832,12171,021.1,045.3,0.268,759.9,01.16,0.508
2016-01-01 01:46:00,1846E-3,5C000400,-0724,0833,12180,021.0,045.3,0.268,759.8,01.16,0.508
2016-01-01 01:47:00,1932E-3,5C000400,-0724,0833,12190,021.1,045.3,0.268,759.9,01.16,0.508
2016-01-01 01:48:00,1961E-3,5C000400,-0724,0833,12111,021.0,045.3,0.268,759.8,01.16,0.508
2016-01-01 01:49:00,1844E-3,5C000400,-0724,0833,12245,021.1,045.3,0.268,759.9,01.16,0.508
2016-01-01 01:50:00,1792E-3,5C000400,-0724,0833,11978,021.0,045.3,0.268,759.8,01.16,0.508
2016-01-01 01:51:00,1865E-3,5C000400,-0724,0833,12129,021.0,045.3,0.268,759.8,01.16,0.508
2016-01-01 01:52:00,1886E-3,5C000400,-0724,0832,12209,021.1,045.3,0.268,759.9,01.16,0.508
2016-01-01 01:53:00,1824E-3,5C000400,-0724,0833,12274,021.0,045.2,0.268,759.8,01.16,0.508
2016-01-01 01:54:00,1773E-3,5C000400,-0724,0832,12228,021.0,045.2,0.268,759.9,01.16,0.508
2016-01-01 01:55:00,1926E-3,5C000400,-0724,0833,12269,021.0,045.3,0.268,759.8,01.16,0.508
2016-01-01 01:56:00,1809E-3,5C000400,-0724,0832,12067,021.0,045.3,0.268,759.7,01.16,0.508
2016-01-01 01:57:00,1690E-3,5C000400,-0724,0833,12172,021.0,045.3,0.268,759.4,01.16,0.508
2016-01-01 01:58:00,1704E-3,5C000400,-0724,0832,12103,021.0,045.3,0.268,759.3,01.16,0.508
2016-01-01 01:59:00,1791E-3,5C000400,-0724,0832,12237,021.0,045.3,0.268,759.6,01.16,0.508
2016-01-01 02:00:00,1909E-3,5C000400,-0724,0833,12081,021.0,045.3,0.268,759.5,01.16,0.508
2016-01-01 02:01:00,1919E-3,5C000400,-0724,0832,12151,021.0,045.3,0.268,759.3,01.16,0.508
2016-01-01 02:02:00,1815E-3,5C000400,-0724,0832,12074,021.0,045.3,0.268,759.2,01.16,0.508
2016-01-01 02:03:00,1802E-3,5C000400,-0724,0833,12178,021.0,045.3,0.268,759.2,01.16,0.508
2016-01-01 02:04:00,1878E-3,5C000400,-0724,0833,12227,021.0,045.3,0.268,759.3,01.16,0.508
2016-01-01 02:05:00,1888E-3,5C000400,-0724,0833,12206,021.0,045.3,0.268,759.3,01.16,0.508
2016-01-01 02:06:00,1859E-3,5C000400,-0724,0833,12110,021.0,045.3,0.268,759.4,01.16,0.508
2016-01-01 02:07:00,1763E-3,5C000400,-0724,0833,12197,021.0,045.2,0.268,759.5,01.16,0.508
2016-01-01 02:08:00,1835E-3,5C000400,-0724,0832,12245,020.9,045.3,0.268,759.5,01.16,0.508
2016-01-01 02:09:00,1865E-3,5C000400,-0724,0832,12083,020.9,045.3,0.268,759.5,01.16,0.508
2016-01-01 02:10:00,1786E-3,5C000400,-0724,0833,12169,020.9,045.3,0.268,759.5,01.16,0.508
2016-01-01 02:11:00,1791E-3,5C000400,-0724,0833,12163,020.9,045.3,0.268,759.5,01.16,0.508
2016-01-01 02:12:00,1845E-3,5C000400,-0724,0832,12157,020.9,045.3,0.268,759.5,01.16,0.508
2016-01-01 02:13:00,1801E-3,5C000400,-0724,0832,12255,020.9,045.2,0.268,759.5,01.16,0.508
2016-01-01 02:14:00,1932E-3,5C000400,-0724,0832,12077,020.9,045.2,0.268,759.5,01.16,0.508
2016-01-01 02:15:00,1846E-3,5C000400,-0724,0832,12176,020.9,045.3,0.268,759.6,01.16,0.508
2016-01-01 02:16:00,1965E-3,5C000400,-0724,0833,12226,020.9,045.3,0.268,759.5,01.16,0.508
2016-01-01 02:17:00,1656E-3,5C000400,-0724,0832,12120,020.9,045.3,0.268,759.5,01.16,0.508
2016-01-01 02:18:00,1793E-3,5C000400,-0724,0833,12258,020.9,045.3,0.268,759.6,01.16,0.508
2016-01-01 02:19:00,1741E-3,5C000400,-0724,0833,12197,020.9,045.3,0.268,759.6,01.16,0.508
2016-01-01 02:20:00,1678E-3,5C000400,-0724,0832,12180,020.9,045.2,0.268,759.6,01.16,0.508
2016-01-01 02:21:00,1886E-3,5C000400,-0724,0833,12235,020.9,045.3,0.268,759.6,01.16,0.508
2016-01-01 02:22:00,1838E-3,5C000400,-0724,0832,12229,020.8,045.3,0.268,759.7,01.16,0.508
2016-01-01 02:23:00,1734E-3,5C000400,-0724,0832,12092,020.9,045.3,0.268,759.6,01.16,0.508
2016-01-01 02:24:00,1726E-3,5C000400,-0724,0832,12225,020.8,045.3,0.268,759.7,01.16,0.508
2016-01-01 02:25:00,1776E-3,5C000400,-0724,0832,12194,020.9,045.3,0.268,759.7,01.16,0.508
2016-01-01 02:26:00,1877E-3,5C000400,-0724,0833,12213,020.9,045.3,0.268,759.6,01.16,0.508
2016-01-01 02:27:00,1743E-3,5C000400,-0724,0833,12170,020.8,045.3,0.268,759.7,01.16,0.508
2016-01-01 02:28:00,1851E-3,5C000400,-0724,0833,12327,020.8,045.3,0.268,759.7,01.16,0.508
2016-01-01 02:29:00,1768E-3,5C000400,-0724,0833,12079,020.8,045.3,0.268,759.7,01.16,0.508
2016-01-01 02:30:00,1850E-3,5C000400,-0724,0833,12212,020.8,045.3,0.268,759.8,01.16,0.508
2016-01-01 02:31:00,1713E-3,5C000400,-0724,0833,11954,020.8,045.2,0.268,759.8,01.16,0.508
2016-01-01 02:32:00,1889E-3,5C000400,-0724,0833,12132,020.8,045.3,0.268,759.8,01.16,0.508
2016-01-01 02:33:00,1731E-3,5C000400,-0724,0833,12036,020.8,045.2,0.269,759.8,01.16,0.508
2016-01-01 02:34:00,1843E-3,5C000400,-0724,0832,12157,020.8,045.2,0.268,759.8,01.16,0.508
2016-01-01 02:35:00,1779E-3,5C000400,-0724,0832,12160,020.8,045.2,0.268,759.8,01.16,0.508
2016-01-01 02:36:00,1946E-3,5C000400,-0724,0833,12237,020.8,045.3,0.268,759.7,01.16,0.508
2016-01-01 02:37:00,1851E-3,5C000400,-0724,0832,12097,020.7,045.2,0.268,759.7,01.16,0.508
2016-01-01 02:38:00,1683E-3,5C000400,-0724,0833,12267,020.8,045.3,0.268,759.7,01.16,0.508
2016-01-01 02:39:00,1748E-3,5C000400,-0724,0833,12195,020.7,045.3,0.269,759.6,01.16,0.508
2016-01-01 02:40:00,1889E-3,5C000400,-0724,0832,12229,020.8,045.3,0.269,759.6,01.16,0.508
2016-01-01 02:41:00,1818E-3,5C000400,-0724,0833,12149,020.8,045.3,0.268,759.6,01.16,0.508
2016-01-01 02:42:00,1743E-3,5C000400,-0724,0833,12145,020.8,045.2,0.268,759.5,01.16,0.508
2016-01-01 02:43:00,1907E-3,5C000400,-0724,0833,11995,020.8,045.3,0.269,759.6,01.16,0.508
2016-01-01 02:44:00,1840E-3,5C000400,-0724,0832,12233,020.8,045.3,0.268,759.6,01.16,0.508
2016-01-01 02:45:00,1793E-3,5C000400,-0724,0832,12258,020.7,045.3,0.268,759.6,01.16,0.508
2016-01-01 02:46:00,1849E-3,5C000400,-0724,0833,12122,020.8,045.3,0.268,759.5,01.16,0.508
2016-01-01 02:47:00,1815E-3,5C000400,-0724,0833,12256,020.8,045.2,0.269,759.5,01.16,0.508
2016-01-01 02:48:00,1788E-3,5C000400,-0724,0833,12097,020.8,045.3,0.268,759.5,01.16,0.508
2016-01-01 02:49:00,1791E-3,5C000400,-0724,0832,12100,020.8,045.3,0.268,759.5,01.16,0.508
2016-01-01 02:50:00,1898E-3,5C000400,-0724,0833,12243,020.8,045.2,0.268,759.4,01.16,0.508
2016-01-01 02:51:00,1844E-3,5C000400,-0724,0832,12324,020.8,045.2,0.269,759.5,01.16,0.508
2016-01-01 02:52:00,1892E-3,5C000400,-0724,0832,12222,020.8,045.3,0.268,759.5,01.16,0.508
2016-01-01 02:53:00,1659E-3,5C000400,-0724,0832,12262,020.8,045.3,0.269,759.5,01.16,0.508
2016-01-01 02:54:00,1942E-3,5C000400,-0724,0832,12228,020.8,045.3,0.268,759.6,01.16,0.508
2016-01-01 02:55:00,1710E-3,5C000400,-0724,0832,12227,020.8,045.3,0.268,759.6,01.16,0.508
2016-01-01 02:56:00,1776E-3,5C000400,-0724,0833,12157,020.8,045.3,0.269,759.6,01.16,0.508
2016-01-01 02:57:00,1738E-3,5C000400,-0724,0833,12249,020.8,045.3,0.268,759.6,01.16,0.508
2016-01-01 02:58:00,1803E-3,5C000400,-0724,0833,12092,020.8,045.3,0.268,759.5,01.16,0.508
2016-01-01 02:59:00,1912E-3,5C000400,-0724,0833,11988,020.8,045.3,0.269,759.6,01.16,0.508
2016-01-01 03:00:00,1829E-3,5C000400,-0724,0832,12156,020.8,045.2,0.268,759.5,01.16,0.508
2016-01-01 03:01:00,1776E-3,5C000400,-0724,0832,12257,020.8,045.3,0.269,759.5,01.16,0.508
2016-01-01 03:02:00,1740E-3,5C000400,-0724,0833,12280,020.8,045.2,0.269,759.5,01.16,0.508
2016-01-01 03:03:00,1887E-3,5C000400,-0724,0832,12288,020.8,045.3,0.268,759.5,01.16,0.508
2016-01-01 03:04:00,1984E-3,5C000400,-0724,0833,12092,020.8,045.3,0.269,759.5,01.16,0.508
2016-01-01 03:05:00,1963E-3,5C000400,-0724,0832,12131,020.8,045.3,0.268,759.4,01.16,0.508
2016-01-01 03:06:00,1817E-3,5C000400,-0724,0832,12270,020.8,045.3,0.268,759.5,01.16,0.508
2016-01-01 03:07:00,1779E-3,5C000400,-0724,0833,12224,020.8,045.3,0.269,759.5,01.16,0.508
2016-01-01 03:08:00,1708E-3,5C000400,-0724,0833,12153,020.8,045.3,0.268,759.5,01.16,0.508
2016-01-01 03:09:00,1857E-3,5C000400,-0724,0833,11988,020.8,045.3,0.268,759.4,01.16,0.508
2016-01-01 03:10:00,1909E-3,5C000400,-0724,0832,12152,020.8,045.3,0.269,759.5,01.16,0.508
2016-01-01 03:11:00,1885E-3,5C000400,-0724,0833,12223,020.8,045.3,0.268,759.5,01.16,0.508
2016-01-01 03:12:00,1789E-3,5C000400,-0724,0833,12212,020.8,045.3,0.268,759.4,01.16,0.508
2016-01-01 03:13:00,1849E-3,5C000400,-0724,0832,12169,020.8,045.3,0.269,759.5,01.16,0.508
2016-01-01 03:14:00,1746E-3,5C000400,-0724,0833,12186,020.8,045.3,0.269,759.3,01.16,0.508
2016-01-01 03:15:00,1721E-3,5C000400,-0724,0832,12199,020.8,045.3,0.268,759.1,01.16,0.508
2016-01-01 03:16:00,1879E-3,5C000400,-0724,0833,12295,020.8,045.3,0.268,759.1,01.16,0.508
2016-01-01 03:17:00,1767E-3,5C000400,-0724,0833,12130,020.8,045.2,0.269,759.3,01.16,0.508
2016-01-01 03:18:00,1880E-3,5C000400,-0724,0833,12219,020.8,045.2,0.269,759.1,01.16,0.508
2016-01-01 03:19:00,1825E-3,5C000400,-0724,0833,12283,020.8,045.2,0.268,759.2,01.16,0.508
2016-01-01 03:20:00,1741E-3,5C000400,-0724,0832,12110,020.8,045.2,0.268,759.1,01.16,0.508
2016-01-01 03:21:00,1811E-3,5C000400,-0724,0832,12270,020.8,045.3,0.268,758.9,01.16,0.508
2016-01-01 03:22:00,1785E-3,5C000400,-0724,0833,12207,020.8,045.3,0.268,758.9,01.16,0.508
2016-01-01 03:23:00,1830E-3,5C000400,-0724,0833,12184,020.8,045.3,0.269,759.0,01.16,0.508
2016-01-01 03:24:00,1937E-3,5C000400,-0724,0833,12198,020.7,045.2,0.269,758.9,01.16,0.508
2016-01-01 03:25:00,1868E-3,5C000400,-0724,0833,12178,020.8,045.2,0.268,759.0,01.16,0.508
2016-01-01 03:26:00,1677E-3,5C000400,-0724,0832,12192,020.8,045.3,0.268,759.0,01.16,0.508
2016-01-01 03:27:00,1778E-3,5C000400,-0724,0832,12261,020.8,045.3,0.268,758.8,01.16,0.508
2016-01-01 03:28:00,1741E-3,5C000400,-0724,0833,12147,020.8,045.3,0.268,758.9,01.16,0.508
2016-01-01 03:29:00,1798E-3,5C000400,-0724,0832,12095,020.8,045.3,0.268,758.9,01.16,0.508
2016-01-01 03:30:00,1846E-3,5C000400,-0724,0832,12192,020.7,045.3,0.268,758.9,01.16,0.508
2016-01-01 03:31:00,1764E-3,5C000400,-0724,0832,12188,020.8,045.3,0.268,759.0,01.16,0.508
2016-01-01 03:32:00,1846E-3,5C000400,-0724,0832,12260,020.8,045.3,0.268,758.8,01.16,0.508
2016-01-01 03:33:00,1807E-3,5C000400,-0724,0832,12047,020.7,045.3,0.268,758.8,01.16,0.508
2016-01-01 03:34:00,1876E-3,5C000400,-0724,0833,12265,020.7,045.3,0.268,758.9,01.16,0.508
2016-01-01 03:35:00,1789E-3,5C000400,-0724,0832,12281,020.7,045.3,0.268,758.9,01.16,0.508
2016-01-01 03:36:00,1832E-3,5C000400,-0724,0832,12114,020.7,045.3,0.269,758.8,01.16,0.508
2016-01-01 03:37:00,1748E-3,5C000400,-0724,0833,12184,020.7,045.2,0.269,758.9,01.16,0.508
2016-01-01 03:38:00,1864E-3,5C000400,-0724,0832,12290,020.8,045.2,0.269,758.9,01.16,0.508
2016-01-01 03:39:00,1821E-3,5C000400,-0724,0832,12265,020.7,045.3,0.269,759.1,01.16,0.508
2016-01-01 03:40:00,1776E-3,5C000400,-0724,0832,12175,020.7,045.3,0.269,759.0,01.16,0.508
2016-01-01 03:41:00,1729E-3,5C000400,-0724,0832,12225,020.7,045.2,0.269,759.0,01.16,0.508
2016-01-01 03:42:00,1858E-3,5C000400,-0724,0832,12034,020.7,045.3,0.269,759.0,01.16,0.508
2016-01-01 03:43:00,1790E-3,5C000400,-0724,0833,12193,020.7,045.2,0.269,759.0,01.16,0.508
2016-01-01 03:44:00,1744E-3,5C000400,-0724,0833,12206,020.7,045.2,0.269,758.9,01.16,0.508
2016-01-01 03:45:00,1886E-3,5C000400,-0724,0832,12167,020.7,045.2,0.269,759.0,01.16,0.508
2016-01-01 03:46:00,1910E-3,5C000400,-0724,0832,12170,020.7,045.3,0.269,759.0,01.16,0.508
2016-01-01 03:47:00,1842E-3,5C000400,-0724,0833,12181,020.7,045.3,0.269,758.7,01.16,0.508
2016-01-01 03:48:00,1734E-3,5C000400,-0724,0833,12270,020.7,045.2,0.269,758.5,01.16,0.508
2016-01-01 03:49:00,1891E-3,5C000400,-0724,0832,12189,020.7,045.2,0.268,758.6,01.16,0.508
2016-01-01 03:50:00,1694E-3,5C000400,-0724,0832,12119,020.7,045.2,0.268,758.4,01.16,0.508
2016-01-01 03:51:00,1846E-3,5C000400,-0724,0832,12110,020.7,045.3,0.268,758.3,01.16,0.508
2016-01-01 03:52:00,1747E-3,5C000400,-0724,0833,12061,020.7,045.3,0.268,758.5,01.16,0.508
2016-01-01 03:53:00,1929E-3,5C000400,-0724,0833,12301,020.7,045.3,0.268,758.4,01.16,0.508
2016-01-01 03:54:00,1769E-3,5C000400,-0724,0832,12010,020.7,045.2,0.269,758.6,01.16,0.508
2016-01-01 03:55:00,1921E-3,5C000400,-0724,0832,12163,020.6,045.2,0.269,758.5,01.16,0.508
2016-01-01 03:56:00,1926E-3,5C000400,-0724,0833,12300,020.7,045.3,0.269,758.6,01.16,0.508
2016-01-01 03:57:00,1823E-3,5C000400,-0724,0833,12072,020.6,045.2,0.268,758.6,01.16,0.508
2016-01-01 03:58:00,1661E-3,5C000400,-0724,0832,12214,020.6,045.2,0.268,758.4,01.16,0.508
2016-01-01 03:59:00,1715E-3,5C000400,-0724,0833,12179,020.7,045.3,0.268,758.3,01.16,0.508
2016-01-01 04:00:00,1801E-3,5C000400,-0724,0833,12148,020.6,045.3,0.268,758.1,01.16,0.508
2016-01-01 04:01:00,1861E-3,5C000400,-0724,0832,11990,020.6,045.2,0.269,758.5,01.16,0.508
2016-01-01 04:02:00,1806E-3,5C000400,-0724,0832,12213,020.6,045.2,0.269,758.5,01.16,0.508
2016-01-01 04:03:00,1845E-3,5C000400,-0724,0833,12251,020.6,045.2,0.269,758.3,01.16,0.508
2016-01-01 04:04:00,1771E-3,5C000400,-0724,0832,12195,020.6,045.2,0.269,758.3,01.16,0.508
2016-01-01 04:05:00,1826E-3,5C000400,-0724,0832,12095,020.6,045.3,0.269,758.3,01.16,0.508
2016-01-01 04:06:00,1872E-3,5C000400,-0724,0832,12198,020.6,045.3,0.269,758.4,01.16,0.508
2016-01-01 04:07:00,1899E-3,5C000400,-0724,0833,12086,020.6,045.2,0.269,758.4,01.16,0.508
2016-01-01 04:08:00,1916E-3,5C000400,-0724,0832,12026,020.6,045.3,0.269,758.2,01.16,0.508
2016-01-01 04:09:00,1763E-3,5C000400,-0724,0833,12233,020.6,045.3,0.269,758.3,01.16,0.508
2016-01-01 04:10:00,1746E-3,5C000400,-0724,0832,12231,020.6,045.2,0.269,758.3,01.16,0.508
2016-01-01 04:11:00,1970E-3,5C000400,-0724,0832,12171,020.6,045.2,0.269,758.1,01.16,0.508
2016-01-01 04:12:00,1842E-3,5C000400,-0724,0832,12010,020.6,045.2,0.269,758.2,01.16,0.508
2016-01-01 04:13:00,1869E-3,5C000400,-0724,0832,12067,020.6,045.2,0.269,758.3,01.16,0.508
2016-01-01 04:14:00,1903E-3,5C000400,-0724,0832,12225,020.6,045.2,0.269,758.1,01.16,0.508
2016-01-01 04:15:00,1796E-3,5C000400,-0724,0833,12191,020.5,045.2,0.269,758.3,01.16,0.508
2016-01-01 04:16:00,1677E-3,5C000400,-0724,0832,12129,020.5,045.2,0.269,758.3,01.16,0.508
2016-01-01 04:17:00,1692E-3,5C000400,-0724,0833,12225,020.5,045.2,0.268,758.3,01.16,0.508
2016-01-01 04:18:00,1838E-3,5C000400,-0724,0832,12105,020.5,045.3,0.269,758.3,01.16,0.508
2016-01-01 04:19:00,1764E-3,5C000400,-0724,0832,12231,020.5,045.2,0.269,758.2,01.16,0.508
2016-01-01 04:20:00,1736E-3,5C000400,-0724,0832,12093,020.5,045.2,0.269,758.3,01.16,0.508